SCP
0 0 0 0 0 0 0 0 0 0 0 0 0 0 1 1 1 0 0 0 0 0 0 0 0 0 0 0 0 0 0 0 0 0 0 0 0 0 0 0 0 0 0 0
0 0 0 0 0 0 0 0 0 0 0 0 0 0 1 1 1 0 0 0 0 0 0 0 0 0 0 0 0 0 0 0 0 0 0 0 0 0 0 0 0 0 0 0
0 0 0 0 0 0 0 0 0 0 0 0 0 0 0 1 1 0 0 0 0 0 0 0 0 0 0 0 0 0 0 0 0 0 0 0 0 0 0 0 0 0 0 0
0 0 0 0 0 0 0 0 0 0 0 0 0 0 0 0 0 0 0 0 0 0 0 0 0 0 0 0 0 0 0 0 0 0 0 0 0 0 0 0 0 0 0 0
0 0 0 0 0 0 0 0 0 0 0 0 0 0 0 0 0 0 0 0 0 0 0 0 0 0 0 0 0 0 0 0 0 0 0 0 0 0 0 0 0 0 0 0
0 0 0 0 0 0 0 0 0 0 0 0 0 0 0 0 0 0 0 0 0 0 0 0 0 0 0 0 0 0 0 0 0 0 0 0 0 0 0 0 0 0 0 0
0 0 0 0 0 0 0 0 0 0 0 0 0 0 0 0 0 0 0 0 0 0 0 0 0 0 0 0 0 0 0 0 0 0 0 0 0 0 0 0 0 0 0 0
0 0 0 0 0 0 0 0 0 0 0 0 0 0 0 0 0 0 0 0 0 0 0 0 0 0 0 0 0 0 0 0 0 0 0 0 0 0 0 0 0 0 0 0
0 0 0 0 0 0 0 0 0 0 0 0 0 0 0 0 0 0 0 0 0 0 0 0 0 0 0 0 0 0 0 0 0 0 0 0 0 0 0 0 0 0 0 0
0 0 0 0 0 0 0 0 0 0 0 0 0 0 0 0 0 0 0 0 0 0 0 0 0 0 0 0 0 0 0 0 0 0 0 0 0 0 0 0 0 0 0 0
0 0 0 0 0 0 0 0 0 0 0 0 0 0 0 0 0 0 0 0 0 0 0 0 0 0 0 0 0 0 0 0 0 0 0 0 0 0 0 0 0 0 0 0
0 0 0 0 0 0 0 0 0 0 0 0 0 0 0 0 0 0 0 0 0 0 0 0 0 0 0 0 0 0 0 0 0 0 0 0 0 0 0 0 0 0 0 0
0 0 0 0 0 0 0 0 0 0 0 0 0 0 0 0 0 0 0 0 0 0 0 0 0 0 0 0 0 0 0 0 0 0 0 0 0 0 0 0 0 0 0 0
0 0 0 0 0 0 0 0 0 0 0 0 0 0 0 0 0 0 0 0 0 0 0 0 0 0 0 0 0 0 0 0 0 0 0 0 0 0 0 0 0 0 0 0
0 0 0 0 0 0 0 0 0 0 0 0 0 0 0 0 0 0 0 0 -0 0 0 0 0 0 0 0 0 0 0 0 0 0 0 0 0 0 0 0 0 0 0 0
0 0 0 0 0 0 0 0 0 0 0 0 0 0 0 0 0 -0 -0 -0 -0 0 0 0 0 0 0 0 0 0 0 0 0 0 0 0 0 0 0 0 0 0 0 0
0 0 0 0 0 0 0 0 0 0 0 0 0 0 -0 -0 -0 -0 -0 -0 -0 0 0 0 0 0 0 0 0 0 0 0 0 0 0 0 0 0 0 0 0 0 0 0
0 0 0 0 0 0 0 0 0 0 -0 -0 -0 -0 -0 -0 -0 -0 -0 -0 -0 -0 0 0 0 0 0 0 0 0 0 0 0 0 0 0 0 0 0 0 0 0 0 0
0 0 0 0 0 -0 -0 0 -0 -0 -0 -0 -0 -0 -0 -0 -0 -0 -0 -0 -0 0 0 0 0 0 0 0 0 0 0 0 0 0 0 0 0 0 0 0 0 0 0 0
0 0 0 -0 -0 -0 -0 -0 -0 -0 -0 -0 -0 -0 -0 -0 -0 -0 -0 0 0 0 0 0 0 0 0 0 0 0 0 0 0 0 0 0 0 0 0 0 0 0 0 0
0 0 0 0 0 -0 -0 -0 -0 -0 -0 -0 -0 -0 -0 -0 -0 -0 -0 0 0 0 0 0 0 0 0 0 0 0 0 0 0 0 0 0 0 0 0 0 0 0 0 0
0 0 0 0 0 -0 -0 -0 -0 -0 -0 -0 -0 -0 -0 -0 -0 -0 -0 -0 0 0 0 0 0 0 0 0 0 0 0 0 0 0 0 0 0 0 0 0 0 0 0 0
0 0 0 0 -0 -0 -0 -0 -0 -0 -0 -0 -0 -0 -0 -0 -0 -0 0 0 0 0 0 0 0 0 0 0 0 0 0 0 0 0 0 0 0 0 0 0 0 0 0 0
0 0 0 0 -0 -0 -0 -0 -0 -0 -0 -0 -0 -0 0 0 0 0 0 0 0 0 0 0 0 0 0 0 0 0 0 0 0 0 0 0 0 0 0 0 0 0 0 0
0 0 0 0 -0 -0 -0 -0 -0 -0 -0 -0 -0 -0 0 0 0 0 0 0 0 0 0 0 0 0 0 0 0 0 0 0 0 0 0 0 0 0 0 0 0 0 0 0
0 0 0 0 0 0 0 -0 -0 -0 0 0 0 0 0 0 0 0 0 0 0 0 0 0 0 0 0 0 0 0 0 0 0 0 0 0 0 0 0 0 0 0 0 0
0 0 0 0 0 0 0 -0 -0 0 0 0 0 0 0 0 0 0 0 0 0 0 0 0 0 0 0 0 0 0 0 0 0 0 0 0 0 0 0 0 0 0 0 0
Wind_Speed
5 2 3 5 6 7 9 9 10 8 7 4 1 5 7 10 13 14 15 14 13 12 11 11 11 10 9 7 4 4 4 3 3 1 2 5 6 7 8 8 9 9 9 9
10 8 8 12 13 13 13 13 14 15 14 4 2 5 9 12 14 16 16 15 13 12 11 10 9 9 8 5 4 4 3 3 2 2 4 5 6 6 6 6 7 8 8 8
12 10 11 16 10 9 10 10 11 13 8 5 1 5 9 11 14 15 16 16 14 11 9 8 7 7 6 4 3 3 2 1 2 4 4 4 4 5 6 7 7 8 8 8
10 9 13 1 6 5 7 5 8 8 8 9 6 1 4 7 9 12 14 14 13 11 10 9 8 6 3 3 3 2 2 2 3 3 3 4 5 6 7 7 8 8 7 7
8 11 11 4 5 6 6 2 10 11 8 5 4 2 1 2 2 7 11 13 13 12 10 9 7 4 3 3 2 2 2 2 3 4 5 5 6 6 6 7 7 8 6 6
8 8 7 3 7 4 6 4 10 11 8 3 3 3 3 5 8 13 15 14 13 11 10 8 5 3 1 1 1 1 3 4 5 5 5 5 5 6 6 5 6 7 7 7
9 8 6 7 6 6 7 4 12 12 9 3 2 5 9 11 13 14 14 14 12 10 8 7 6 3 2 1 2 3 4 5 6 5 4 4 5 5 5 6 6 7 8 7
7 9 3 8 7 6 9 12 11 11 7 2 7 10 11 13 14 14 14 12 10 8 9 7 5 4 3 4 5 5 6 6 5 4 5 5 5 4 4 5 6 8 8 8
4 4 5 5 7 9 11 13 11 9 2 8 11 12 13 14 14 13 12 10 9 11 11 8 6 3 5 6 5 6 6 5 4 5 5 5 5 4 5 5 5 6 6 7
7 7 7 9 11 11 11 11 8 3 5 11 15 16 15 13 12 12 13 12 11 11 10 8 6 5 6 6 6 6 6 5 4 5 5 5 5 6 6 6 6 6 7 8
11 11 10 8 8 10 9 5 2 7 11 15 17 16 15 13 13 13 12 10 9 9 9 8 7 8 8 7 6 6 5 5 5 5 6 5 5 7 7 7 6 7 8 8
9 9 10 12 11 9 3 5 11 14 15 15 15 16 15 14 13 12 11 10 9 8 8 9 9 9 8 6 5 4 4 4 4 5 6 5 5 5 5 4 3 4 6 7
11 12 11 9 6 1 7 11 13 14 16 16 15 15 15 14 12 12 11 9 8 8 9 9 9 9 8 7 6 6 6 6 6 6 5 5 7 7 6 5 4 4 6 9
6 4 1 4 7 11 14 14 14 16 16 16 14 14 13 13 12 11 10 9 8 9 9 9 9 9 8 7 6 6 6 6 6 6 6 6 6 5 5 6 6 7 6 9
7 8 10 12 14 14 14 14 15 15 15 15 14 13 13 13 12 11 9 9 9 9 9 9 10 9 7 6 7 8 8 7 6 6 6 6 5 4 4 5 5 6 7 9
9 11 11 12 12 12 12 13 14 14 14 15 14 13 13 12 11 10 8 8 8 9 9 9 9 8 7 6 6 7 8 6 7 5 6 5 5 4 4 5 5 6 6 8
7 8 8 9 9 10 10 12 13 13 14 14 13 13 12 12 11 9 9 9 9 9 8 8 8 7 7 6 5 5 5 5 1 5 7 7 6 6 5 5 5 5 6 8
7 6 6 8 9 10 11 12 13 14 13 13 13 12 11 10 10 9 9 9 9 10 9 8 7 7 7 7 5 5 5 6 7 7 7 7 7 7 7 7 7 7 6 7
9 9 9 10 10 11 12 13 13 13 12 11 11 10 10 10 10 9 9 10 11 10 9 8 5 6 7 6 3 4 5 6 6 7 7 6 6 8 8 8 7 7 6 7
9 10 11 11 12 12 12 13 13 12 11 11 12 12 11 11 11 10 10 9 9 9 8 7 6 7 6 4 5 4 6 6 7 7 7 7 8 8 8 8 9 9 8 8
8 10 12 12 12 12 12 12 11 11 10 11 12 12 11 10 9 8 9 10 9 8 8 5 5 5 5 3 2 6 7 7 7 7 7 7 7 8 8 8 9 9 9 8
8 10 11 11 11 11 10 10 10 10 9 10 12 11 10 9 8 7 8 8 8 4 4 6 8 8 4 3 6 8 8 7 7 7 7 7 7 7 8 8 8 8 8 8
9 10 11 11 11 11 11 10 11 10 9 9 9 9 9 7 6 7 8 7 7 3 5 9 8 3 5 3 7 7 8 7 7 7 7 7 7 7 8 8 8 8 8 8
9 9 10 11 11 11 11 11 10 8 9 8 9 9 9 7 6 7 9 9 7 5 9 9 5 1 4 5 7 7 7 7 7 7 8 7 7 8 8 8 7 7 8 9
10 10 11 11 11 10 10 10 9 9 9 8 10 9 7 6 7 8 9 10 9 8 10 7 3 4 2 7 7 8 9 8 8 7 7 8 8 8 8 8 8 8 8 8
11 10 9 9 7 8 8 8 7 6 7 9 8 7 7 7 9 8 8 10 11 9 9 7 6 3 7 8 8 8 7 6 6 7 9 8 9 8 8 8 10 8 8 9
12 10 8 7 7 7 7 7 7 7 6 7 8 8 8 8 8 9 10 9 8 7 7 6 6 6 7 7 7 7 7 7 7 7 7 7 7 7 7 9 8 8 8 9
Wind_Direction
277 322 307 275 271 273 273 285 284 283 270 300 122 187 184 173 161 165 169 167 165 155 145 141 132 122 108 104 121 149 158 143 133 158 279 291 301 307 312 316 319 324 325 327
258 253 273 274 270 269 272 276 275 276 275 349 49 174 186 182 176 179 174 168 163 151 145 138 126 114 108 118 155 171 155 137 137 277 295 308 319 328 339 347 345 339 338 339
265 263 279 265 282 292 287 292 297 290 328 31 326 207 208 199 192 188 176 167 156 147 136 119 103 95 103 136 173 178 164 194 256 292 316 339 353 9 8 354 344 336 338 339
263 258 252 299 40 338 301 309 346 324 346 343 338 272 235 224 203 184 171 154 139 127 111 97 89 88 112 148 162 182 212 261 297 330 12 39 32 18 3 352 345 337 337 339
251 245 259 221 55 2 320 312 32 1 359 7 51 83 50 317 231 157 138 124 117 114 110 104 105 127 157 150 156 220 274 325 11 37 59 42 24 10 359 349 349 333 340 333
232 243 244 87 39 347 276 219 36 7 354 332 260 267 103 89 87 94 102 108 110 111 111 112 123 142 139 143 207 337 10 42 65 65 50 31 15 354 355 347 345 336 340 332
229 235 250 65 6 288 254 7 3 348 344 315 285 43 94 99 96 101 105 108 111 115 116 122 129 130 143 136 38 35 70 89 80 63 39 10 356 347 338 341 350 342 337 336
228 235 225 52 357 342 336 332 323 326 337 84 107 105 105 102 104 106 106 109 116 120 121 126 140 164 140 76 66 87 99 94 75 36 2 357 345 332 335 355 356 349 345 341
267 285 20 344 315 310 305 305 305 303 321 136 129 117 109 108 108 110 116 128 139 137 136 143 154 141 90 85 97 106 101 82 49 20 13 5 346 4 20 20 1 352 347 339
275 275 304 309 302 300 304 306 302 302 137 139 126 120 117 116 122 132 138 143 145 139 133 128 119 93 87 98 106 104 89 63 38 23 26 45 19 26 26 18 4 352 350 347
268 281 290 289 305 315 314 313 93 113 121 123 123 124 127 133 138 136 133 131 128 122 118 107 99 97 98 103 106 96 74 47 35 43 45 40 44 39 23 36 14 350 352 343
288 318 311 307 317 317 295 131 123 118 117 123 126 132 134 129 125 122 121 122 120 117 107 101 102 99 97 101 97 75 59 39 35 45 41 27 39 78 84 34 358 330 332 331
291 299 299 307 326 34 119 119 123 126 125 124 126 126 121 119 118 119 121 121 115 107 103 105 104 99 98 96 82 62 46 28 33 36 31 35 38 27 16 14 358 343 342 345
313 293 313 63 85 101 109 116 119 115 114 116 119 119 118 119 122 122 117 112 110 109 110 110 103 98 99 95 79 60 56 58 34 45 33 38 39 31 18 3 359 2 3 359
60 86 92 94 95 101 107 115 116 116 120 123 124 123 124 124 121 116 113 111 109 109 109 107 103 103 104 95 74 53 41 43 43 42 42 42 35 29 21 13 8 5 2 360
89 98 102 100 102 111 118 122 120 120 123 127 127 123 119 116 115 115 114 112 104 98 102 105 108 113 110 97 92 91 80 35 3 28 39 38 38 34 29 24 18 12 9 4
107 105 112 111 111 115 119 121 120 122 125 126 125 122 122 123 121 112 101 90 85 89 100 108 112 115 107 87 66 69 74 86 48 34 39 32 37 42 42 38 27 13 9 12
88 90 103 113 115 116 119 122 123 123 122 122 127 130 129 126 117 108 102 101 97 95 98 105 110 109 94 76 58 54 57 49 46 43 45 32 22 34 36 41 44 32 7 12
87 85 91 100 110 117 121 123 120 118 121 128 129 122 115 113 110 106 107 109 108 102 94 96 105 106 91 69 14 72 52 49 48 46 46 47 34 36 32 32 41 44 30 21
96 96 100 102 105 111 116 118 120 124 128 127 122 117 114 116 112 106 101 90 80 89 106 115 121 98 97 74 321 53 50 42 41 43 41 38 38 36 32 30 30 31 31 28
116 113 114 110 110 114 119 123 126 128 130 130 126 118 117 121 116 112 113 105 99 101 109 125 107 98 85 70 304 48 50 45 44 41 36 36 37 36 33 30 30 29 28 25
136 118 117 120 122 123 126 131 135 138 136 130 125 123 128 129 118 97 86 100 115 136 126 101 85 70 48 331 60 58 56 51 47 43 38 36 35 34 34 31 30 28 26 24
138 126 124 132 135 131 130 130 132 134 136 138 137 140 137 126 124 124 117 116 125 128 90 82 95 111 292 52 67 64 59 51 47 45 42 40 41 38 34 31 31 29 28 25
139 132 129 135 145 142 132 123 118 118 120 122 124 129 131 128 114 98 102 102 102 110 95 104 126 225 287 71 67 62 58 49 46 45 41 40 41 40 37 32 31 32 32 30
146 141 141 148 155 148 135 128 125 125 121 117 124 130 126 120 117 112 114 118 130 123 111 126 177 261 70 70 68 65 58 45 31 33 48 40 39 40 36 34 31 33 33 31
151 151 152 158 148 144 149 152 148 142 133 129 128 122 114 114 120 122 122 126 127 126 127 136 138 137 84 80 73 67 68 73 64 52 46 42 43 42 38 34 38 37 36 34
150 148 157 166 158 153 152 154 153 155 152 139 130 129 130 132 132 129 127 131 138 134 126 123 110 97 90 85 80 74 67 61 55 52 52 48 44 41 40 41 39 39 40 43